TRA437 EHEH-EDDH

Flight info

Callsign TRA437
Flight time N/A
Altitude 23000
Route VELNI Y869 SUMOP L179 OSN M170 STADE
Aircraft A20N/M-SDE2E3FGHIRWXY/LB1

Departure

Time 2026-04-30 15:16
Airport Eindhoven Airport (EHEH)

Arrival

Time N/A
Airport Hamburg Helmut Schmidt Airport (EDDH)
Time Latitude Longitude Altitude Speed Heading
2026-04-30 14:35 51.45614 5.38784 74 ft 0 kts 125°
2026-04-30 14:58 51.45630 5.38745 64 ft 2 kts 121°
2026-04-30 14:58 51.45638 5.38722 65 ft 2 kts 115°
2026-04-30 14:58 51.45643 5.38671 68 ft 2 kts 55°
2026-04-30 14:59 51.45635 5.38656 68 ft 0 kts 36°
2026-04-30 15:02 51.45651 5.38674 66 ft 8 kts 34°
2026-04-30 15:02 51.45730 5.38763 68 ft 10 kts 36°
2026-04-30 15:03 51.45822 5.38708 71 ft 0 kts 306°
2026-04-30 15:04 51.45831 5.38688 70 ft 9 kts 306°
2026-04-30 15:05 51.45995 5.38318 68 ft 11 kts 303°
2026-04-30 15:06 51.45882 5.38148 67 ft 16 kts 215°
2026-04-30 15:06 51.45661 5.37899 69 ft 22 kts 213°
2026-04-30 15:07 51.45577 5.37804 70 ft 6 kts 216°
2026-04-30 15:07 51.45459 5.37671 75 ft 15 kts 214°
2026-04-30 15:08 51.45213 5.37398 69 ft 26 kts 215°
2026-04-30 15:08 51.44921 5.37069 73 ft 25 kts 216°
2026-04-30 15:09 51.44786 5.36916 66 ft 26 kts 215°
2026-04-30 15:10 51.44634 5.36749 73 ft 28 kts 215°
2026-04-30 15:11 51.44087 5.36137 70 ft 22 kts 214°
2026-04-30 15:11 51.43975 5.36100 74 ft 0 kts 135°
2026-04-30 15:12 51.43968 5.36117 72 ft 6 kts 123°
2026-04-30 15:13 51.43975 5.36289 66 ft 0 kts 34°
2026-04-30 15:14 51.44019 5.36340 74 ft 39 kts 37°
2026-04-30 15:14 51.44547 5.36932 67 ft 128 kts 34°
2026-04-30 15:16 51.49670 5.42764 3756 ft 220 kts 41°
2026-04-30 15:17 51.51997 5.50831 6146 ft 214 kts 117°
2026-04-30 15:18 51.48862 5.61924 8865 ft 237 kts 103°
2026-04-30 15:19 51.48787 5.70680 10929 ft 284 kts 84°